Location: 5810 Zion Rd, Cleves, OH 45002, USA
(39.1922°N, 84.7113°W)
Time: 05:00:41
(UTC-05:00)

Vanguard 3 - Visible Passes

Search period start: 06 December 2019 00:00
Search period end: 16 December 2019 00:00
Orbit: 507 x 3263 km, 33.3° (Epoch: 05 December)

Date Brightness Start Highest point End Pass type
(mag) Time Alt. Az. Time Alt. Az. Time Alt. Az.
07 Dec 10.7 06:48:03 10° SSE 06:52:05 15° SE 06:57:15 10° E visible
07 Dec 12.1 17:54:41 10° WSW 18:01:36 13° SW 18:08:20 10° SSW visible
09 Dec 10.3 06:31:33 10° SSE 06:35:29 16° SE 06:40:36 10° E visible
09 Dec 12.3 17:42:56 10° SW 17:44:14 10° SW 17:45:31 10° SW visible
11 Dec 10.0 06:15:12 10° S 06:18:58 17° SE 06:23:58 10° E visible
12 Dec 9.6 07:10:19 10° SSW 07:15:50 34° SSE 07:24:48 10° E visible
13 Dec 9.7 05:58:59 10° S 06:02:35 17° SE 06:07:22 10° E visible
14 Dec 9.3 06:54:26 10° SW 06:59:31 35° SSE 07:07:45 10° E visible
15 Dec 9.4 05:42:51 10° S 05:46:16 18° SE 05:50:50 10° E visible
